Погода в Юрово

Украина / Житомирская область     51°21′38″N   27°49′51″E
темп.,
°C
ветер,
м/с
пор.,
м/с
влажн.,
%
обл.,
%
осадки,
мм/ч
давл.,
гПа
погр.,
м
10 мая, пн
пн1000:00+6юв22713 0.0 102516
03:00+5ююв34745 0.0 102563
06:00+5ююв36765 0.0 1025110
09:00+12ююв46575 0.0 1026392
12:00+16ююв44460 0.0 10251243
15:00+18ююв44435 0.0 10241604
18:00+18юв34490 0.0 10221480
21:00+12вюв37770 0.0 1023107
11 мая, вт
вт1100:00+9вюв37810 0.0 1024127
03:00+7юв37740 0.0 1024131
06:00+6юв26760 0.0 1024101
09:00+13вюв35540 0.0 1024463
12:00+17вюв35370 0.0 10221139
15:00+20юв34400 0.0 10201203
18:00+20вюв35451 0.0 10191306
21:00+14в38780 0.0 1019147
12 мая, ср
ср1200:00+12в311890 0.0 1019263
03:00+11в3109713 0.0 1018327
06:00+9вюв4109219 0.0 1019532
09:00+11вюв586932 0.0 1019943
12:00+10вюв6967100 0.0 10191023
15:00+13вюв586099 0.1 10171327
18:00+13вюв4661100 0.0 10151485
21:00+9вюв2281100 0.0 101415
13 мая, чт
чт1300:00+9ю248093 0.0 1012103
03:00+7ю2690100 0.0 1010133
06:00+7юв2887100 0.0 1009246
09:00+11ююв51166100 0.0 1009695
12:00+11ююв61277100 0.1 10081047
15:00+13ююв6117088 0.1 10081156
18:00+16ююв6116775 0.0 10071370
21:00+13ююв6128018 0.0 1008782
14 мая, пт
пт1400:00+13ююв51284100 0.0 1008791
03:00+12юв4119249 0.2 1008479
06:00+11юв4993100 0.0 1007421
09:00+11юв3891100 0.1 1008516
12:00+12ю379274 0.3 1008513
15:00+18юз356142 0.3 10081238
18:00+17ююз257352 0.8 1008584
21:00+13ююз229080 2.0 100912